CW8443 Weather Reports


Display with metric or nautical units.
time (UTC)temp
F
wind
direction
speed
MPH
gust
MPH
rain 1hr
in
rain 24hr
in
rain mn
in
humidity
%
barometer
mb
20260902232737 80 242 0.0 0.0 0.00 0.00 0.00 74 1007.0
20260902232244 80 241 0.0 0.0 0.00 0.00 0.00 75 1007.0
20260902231736 79 242 0.0 0.0 0.00 0.00 0.00 76 1007.0
20260902231242 79 244 0.0 0.0 0.00 0.00 0.00 77 1006.9
20260902230754 79 244 0.0 0.0 0.00 0.00 0.00 77 1006.9
20260902230253 79 245 0.0 0.0 0.00 0.00 0.00 78 1006.9
20260902230137 79 244 0.0 0.0 0.00 0.00 0.00 78 1006.9
20260902224748 79 245 0.0 0.0 0.00 0.00 0.00 79 1007.0
20260902224238 78 245 0.0 0.0 0.00 0.00 0.00 80 1006.9
20260902223747 78 245 0.0 0.0 0.00 0.00 0.00 80 1006.9
20260902222735 78 245 0.0 0.0 0.00 0.00 0.00 80 1006.6
20260902222242 78 245 0.0 0.0 0.00 0.00 0.00 80 1006.6
20260902221753 77 245 0.0 0.0 0.00 0.00 0.00 81 1006.6
20260902221242 77 245 0.0 0.0 0.00 0.00 0.00 81 1006.4
20260902220254 77 245 0.0 0.0 0.00 0.00 0.00 82 1006.4
20260902215251 77 245 0.0 0.0 0.00 0.00 0.00 82 1006.7
20260902214743 77 245 0.0 0.0 0.00 0.00 0.00 82 1006.7
20260902214254 77 245 0.0 0.0 0.00 0.00 0.00 83 1006.8
20260902213743 77 245 0.0 0.0 0.00 0.00 0.00 83 1006.8
20260902213243 77 245 0.0 0.0 0.00 0.00 0.00 83 1006.8
20260902213126 77 245 0.0 0.0 0.00 0.00 0.00 83 1006.8
20260902212746 77 245 0.0 0.0 0.00 0.00 0.00 83 1006.8
20260902212254 77 245 0.0 0.0 0.00 0.00 0.00 84 1006.8
20260902211746 77 245 0.0 0.0 0.00 0.00 0.00 84 1006.8
20260902211236 77 245 0.0 0.0 0.00 0.00 0.00 84 1007.1
20260902210736 77 245 0.0 0.0 0.00 0.00 0.00 84 1007.1
20260902210249 77 245 0.0 0.0 0.00 0.00 0.00 84 1007.0
20260902205738 77 245 0.0 0.0 0.00 0.00 0.00 84 1006.9
20260902205248 77 245 0.0 0.0 0.00 0.00 0.00 84 1006.9
20260902204741 76 245 0.0 0.0 0.00 0.00 0.00 84 1006.9
20260902204252 76 245 0.0 0.0 0.00 0.00 0.00 84 1006.9
20260902203743 76 245 0.0 0.0 0.00 0.00 0.00 83 1006.9
20260902203243 77 245 0.0 0.0 0.00 0.00 0.00 83 1006.9
20260902203146 77 245 0.0 0.0 0.00 0.00 0.00 83 1006.9
20260902202749 77 245 0.0 0.0 0.00 0.00 0.00 83 1006.8
20260902202238 77 245 0.0 0.0 0.00 0.00 0.00 83 1006.8
20260902201745 77 245 0.0 0.0 0.00 0.00 0.00 83 1006.8
20260902200752 77 245 0.0 0.0 0.00 0.00 0.00 83 1006.9
20260902200248 77 245 0.0 0.0 0.00 0.00 0.00 83 1006.9
20260902200132 77 245 0.0 0.0 0.00 0.00 0.00 83 1006.9
20260902195249 77 245 0.0 0.0 0.00 0.00 0.00 83 1007.4
20260902194745 77 245 0.0 0.0 0.00 0.00 0.00 83 1007.4
20260902194252 77 245 0.0 0.0 0.00 0.00 0.00 83 1007.5
20260902193240 77 245 0.0 0.0 0.00 0.00 0.00 83 1007.5
20260902193128 77 245 0.0 0.0 0.00 0.00 0.00 83 1007.5
20260902192743 77 245 0.0 0.0 0.00 0.00 0.00 83 1007.6
20260902192250 77 245 0.0 0.0 0.00 0.00 0.00 83 1007.6
20260902191741 77 245 0.0 0.0 0.00 0.00 0.00 82 1007.6
20260902191249 77 245 0.0 0.0 0.00 0.00 0.00 82 1007.6
20260902190741 77 245 0.0 0.0 0.00 0.00 0.00 82 1007.6
20260902190240 77 245 0.0 0.0 0.00 0.00 0.00 82 1007.6
20260902190144 77 245 0.0 0.0 0.00 0.00 0.00 82 1007.6
20260902185745 77 245 0.0 0.0 0.00 0.00 0.00 82 1007.9
20260902185254 77 245 0.0 0.0 0.00 0.00 0.00 82 1007.9
20260902184746 77 245 0.0 0.0 0.00 0.00 0.00 82 1007.9
20260902184237 77 245 0.0 0.0 0.00 0.00 0.00 82 1007.5
20260902183742 77 245 0.0 0.0 0.00 0.00 0.00 82 1007.5
20260902183238 77 245 0.0 0.0 0.00 0.00 0.00 82 1007.5
20260902183142 77 245 0.0 0.0 0.00 0.00 0.00 82 1007.5
20260902182744 77 245 0.0 0.0 0.00 0.00 0.00 82 1007.5
20260902182252 77 245 0.0 0.0 0.00 0.00 0.00 82 1007.5
20260902181744 77 245 0.0 0.0 0.00 0.00 0.00 82 1007.5
20260902180739 77 245 0.0 0.0 0.00 0.00 0.00 82 1007.8
20260902180255 77 245 0.0 0.0 0.00 0.00 0.00 82 1007.8
20260902180139 77 245 0.0 0.0 0.00 0.00 0.00 82 1007.8
20260902175734 77 245 0.0 0.0 0.00 0.00 0.00 82 1008.0
20260902174742 77 245 0.0 0.0 0.00 0.00 0.00 81 1008.0
20260902174252 77 245 0.0 0.0 0.00 0.00 0.00 81 1008.4
20260902173740 77 245 0.0 0.0 0.00 0.00 0.00 81 1008.4
20260902173127 77 245 0.0 0.0 0.00 0.00 0.00 81 1008.4
20260902172747 77 245 0.0 0.0 0.00 0.00 0.00 81 1008.5
20260902172238 78 245 0.0 0.0 0.00 0.00 0.00 81 1008.5
20260902171749 78 245 0.0 0.0 0.00 0.00 0.00 81 1008.5
20260902171237 78 245 0.0 0.0 0.00 0.00 0.00 81 1008.5
20260902170746 78 245 0.0 0.0 0.00 0.00 0.00 81 1008.5
20260902170243 78 247 0.0 0.0 0.00 0.00 0.00 81 1008.5
20260902170127 78 247 0.0 0.0 0.00 0.00 0.00 81 1008.5
20260902165748 78 235 0.0 0.0 0.00 0.00 0.00 80 1008.5
20260902165240 78 158 0.0 0.0 0.00 0.00 0.00 80 1008.5
20260902164244 78 158 0.0 0.0 0.00 0.00 0.00 80 1008.5
20260902163751 78 158 0.0 0.0 0.00 0.00 0.00 80 1008.5
20260902163248 78 158 0.0 0.0 0.00 0.00 0.00 80 1008.5
20260902163132 78 158 0.0 0.0 0.00 0.00 0.00 80 1008.5
20260902162752 78 158 0.0 0.0 0.00 0.00 0.00 80 1008.5
20260902162240 78 158 0.0 0.0 0.00 0.00 0.00 80 1008.5
20260902161751 78 158 0.0 0.0 0.00 0.00 0.00 80 1008.5
20260902161240 78 158 0.0 0.0 0.00 0.00 0.00 80 1008.5
20260902160735 78 158 0.0 0.0 0.00 0.00 0.00 80 1008.5
20260902160252 78 156 0.0 0.0 0.00 0.00 0.00 80 1008.5
20260902160135 78 156 0.0 0.0 0.00 0.00 0.00 80 1008.5
20260902155737 78 156 0.0 0.0 0.00 0.00 0.00 80 1008.5
20260902155245 78 155 0.0 0.0 0.00 0.00 0.00 80 1008.5
20260902154737 78 155 0.0 0.0 0.00 0.00 0.00 79 1008.5
20260902154246 78 154 0.0 0.0 0.00 0.00 0.00 79 1008.6
20260902153734 78 180 0.0 0.0 0.00 0.00 0.00 79 1008.6
20260902153251 78 179 0.0 0.0 0.00 0.00 0.00 79 1008.6
20260902153134 78 179 0.0 0.0 0.00 0.00 0.00 79 1008.6
20260902152751 78 176 0.0 0.0 0.00 0.00 0.00 79 1008.6
20260902152240 78 173 0.0 0.0 0.00 0.00 0.00 79 1008.6
20260902151235 78 173 0.0 0.0 0.00 0.00 0.00 79 1008.6
20260902150750 78 173 0.0 0.0 0.00 0.00 0.00 79 1008.6
20260902150246 79 173 0.0 0.0 0.00 0.00 0.00 79 1008.6
20260902150130 79 173 0.0 0.0 0.00 0.00 0.00 79 1008.6
20260902145752 79 173 0.0 0.0 0.00 0.00 0.01 79 1009.0
20260902145239 79 169 0.0 0.0 0.00 0.00 0.01 79 1009.0
20260902144748 79 168 0.0 0.0 0.00 0.00 0.01 79 1009.0
20260902144238 79 169 0.0 0.0 0.00 0.00 0.01 79 1009.0
20260902143749 79 134 1.0 0.0 0.00 0.00 0.01 79 1009.0
20260902143249 79 134 1.0 0.0 0.00 0.00 0.01 79 1009.0
20260902143132 79 172 1.0 0.0 0.00 0.00 0.01 79 1009.0
20260902142751 79 186 1.0 0.0 0.00 0.00 0.01 79 1009.1
20260902142241 79 179 1.0 0.0 0.00 0.00 0.01 79 1009.1
20260902141248 79 124 0.0 0.0 0.00 0.00 0.01 79 1009.0
20260902140740 79 120 0.0 0.0 0.00 0.00 0.01 79 1009.0
20260902140131 79 151 0.0 0.0 0.00 0.00 0.01 79 1009.0
20260902135748 79 155 0.0 0.0 0.00 0.00 0.01 79 1009.0
20260902134244 79 142 1.0 0.0 0.00 0.00 0.01 79 1009.1
20260902133751 79 186 1.0 0.0 0.00 0.00 0.01 79 1009.1
20260902133249 79 182 1.0 0.0 0.00 0.00 0.01 79 1009.1
20260902133133 79 180 1.0 0.0 0.00 0.00 0.01 79 1009.1
20260902132753 79 183 1.0 0.0 0.00 0.00 0.01 78 1009.1
20260902132243 79 178 1.0 0.0 0.00 0.00 0.01 78 1009.1
20260902131737 79 172 0.0 0.0 0.00 0.00 0.01 78 1009.1
20260902131246 79 158 0.0 0.0 0.00 0.00 0.01 78 1009.3
20260902130735 79 170 0.0 0.0 0.00 0.00 0.01 78 1009.3
20260902130234 79 206 0.0 0.0 0.00 0.00 0.01 77 1009.3
20260902130140 79 206 0.0 0.0 0.00 0.00 0.01 77 1009.3
20260902125237 79 187 0.0 0.0 0.00 0.00 0.01 77 1009.3
20260902124751 79 185 0.0 0.0 0.00 0.00 0.01 77 1009.3
20260902124240 79 202 0.0 0.0 0.00 0.00 0.01 76 1009.5
20260902123753 79 196 0.0 0.0 0.00 0.00 0.01 76 1009.5
20260902123250 79 210 0.0 0.0 0.00 0.00 0.01 76 1009.5
20260902122736 79 209 0.0 0.0 0.00 0.00 0.01 75 1009.5
20260902122244 79 210 0.0 0.0 0.00 0.00 0.01 75 1009.5
20260902121755 79 209 0.0 0.0 0.00 0.00 0.01 75 1009.5
20260902121245 79 209 0.0 0.0 0.00 0.00 0.01 74 1009.6
20260902120744 80 209 0.0 0.0 0.00 0.00 0.01 74 1009.7
20260902120241 80 209 0.0 0.0 0.00 0.00 0.01 74 1009.7
20260902120145 80 207 0.0 0.0 0.00 0.00 0.01 74 1009.7
20260902115748 80 206 0.0 0.0 0.00 0.00 0.01 74 1009.5
20260902114755 80 193 1.0 0.0 0.00 0.00 0.01 74 1009.5
20260902114245 80 161 0.0 0.0 0.00 0.00 0.01 73 1009.6
20260902113755 80 152 1.0 0.0 0.00 0.00 0.01 73 1009.6
20260902113136 80 161 0.0 0.0 0.00 0.00 0.01 72 1009.6
20260902112250 80 170 0.0 0.0 0.00 0.00 0.01 71 1009.5
20260902111743 80 163 0.0 0.0 0.00 0.00 0.01 71 1009.5
20260902111252 80 159 1.0 0.0 0.00 0.00 0.01 71 1009.5
20260902110747 80 156 2.0 0.0 0.00 0.00 0.01 71 1009.5
20260902110250 80 170 1.0 0.0 0.00 0.00 0.01 71 1009.5
20260902110134 80 142 1.0 0.0 0.00 0.00 0.01 71 1009.5
20260902105737 80 187 1.0 0.0 0.00 0.00 0.01 71 1009.5
20260902104745 80 158 1.0 0.0 0.00 0.00 0.01 71 1009.5
20260902104254 80 155 1.0 0.0 0.00 0.00 0.01 71 1009.3
20260902103250 80 125 1.0 0.0 0.00 0.00 0.01 71 1009.3
20260902102739 81 114 1.0 0.0 0.00 0.00 0.01 71 1009.1
20260902102249 81 111 1.0 0.0 0.00 0.00 0.01 72 1009.1
20260902101744 81 179 0.0 0.0 0.00 0.00 0.01 72 1009.1
20260902100740 81 172 1.0 0.0 0.00 0.00 0.01 71 1008.9
20260902100256 81 187 1.0 0.0 0.00 0.00 0.01 71 1008.9
20260902095744 81 169 2.0 0.0 0.00 0.00 0.01 71 1008.7
20260902095254 81 182 2.0 0.0 0.00 0.00 0.01 71 1008.7
20260902094749 81 131 2.0 0.0 0.00 0.00 0.01 70 1008.7
20260902093736 81 179 1.0 0.0 0.00 0.00 0.01 69 1008.7
20260902092752 81 186 1.0 0.0 0.00 0.00 0.01 68 1008.7
20260902092242 81 203 2.0 0.0 0.00 0.00 0.01 68 1008.7
20260902091750 82 223 2.0 0.0 0.00 0.00 0.01 68 1008.7
20260902091242 82 206 3.0 0.0 0.00 0.00 0.01 67 1008.5
20260902090737 82 166 4.0 0.0 0.00 0.00 0.01 66 1008.5
20260902090255 82 207 4.0 0.0 0.00 0.00 0.01 66 1008.5
20260902090139 82 172 4.0 0.0 0.00 0.00 0.01 66 1008.5
20260902085738 82 159 5.0 0.0 0.00 0.00 0.01 66 1008.6
20260902085247 82 183 5.0 0.0 0.00 0.00 0.01 65 1008.6
20260902084740 83 183 3.0 0.0 0.00 0.00 0.01 65 1008.6
20260902084247 83 148 1.0 0.0 0.00 0.00 0.01 65 1008.6
20260902083755 83 179 2.0 0.0 0.00 0.00 0.01 65 1008.6
20260902083249 83 178 2.0 0.0 0.00 0.00 0.01 65 1008.6
20260902083137 83 168 2.0 0.0 0.00 0.00 0.01 65 1008.6
20260902082755 83 159 4.0 0.0 0.00 0.00 0.01 64 1008.6
20260902082243 84 158 4.0 0.0 0.00 0.00 0.01 62 1008.6
20260902081244 84 172 2.0 0.0 0.00 0.00 0.01 62 1008.6
20260902080736 84 186 4.0 0.0 0.00 0.00 0.01 61 1008.6
20260902080253 85 144 4.0 0.0 0.00 0.00 0.01 61 1008.6
20260902080136 85 185 3.0 0.0 0.00 0.00 0.01 61 1008.6
20260902075737 85 154 1.0 0.0 0.00 0.00 0.01 59 1008.5
20260902075245 85 166 0.0 0.0 0.00 0.00 0.01 58 1008.5
20260902074247 86 186 0.0 0.0 0.00 0.00 0.01 56 1008.4
20260902073754 86 186 0.0 0.0 0.00 0.00 0.01 56 1008.4
20260902073141 86 180 0.0 0.0 0.00 0.00 0.01 56 1008.4
20260902072741 86 178 0.0 0.0 0.00 0.00 0.01 56 1008.3
20260902072252 86 221 0.0 0.0 0.00 0.00 0.01 56 1008.3
20260902071745 87 173 0.0 0.0 0.00 0.00 0.01 56 1008.3
20260902071253 87 176 0.0 0.0 0.00 0.00 0.01 55 1008.2
20260902070745 87 186 0.0 0.0 0.00 0.00 0.01 56 1008.2
20260902070241 87 265 0.0 0.0 0.00 0.00 0.01 55 1008.2
20260902070128 87 162 0.0 0.0 0.00 0.00 0.01 55 1008.2
20260902065744 88 182 0.0 0.0 0.00 0.00 0.01 55 1008.1
20260902065252 88 117 0.0 0.0 0.00 0.00 0.01 54 1008.1
20260902064745 88 176 0.0 0.0 0.00 0.00 0.01 54 1008.1
20260902064254 88 170 0.0 0.0 0.00 0.00 0.01 54 1008.0
20260902063743 88 228 0.0 0.0 0.00 0.00 0.01 53 1008.0
20260902063241 89 168 0.0 0.0 0.00 0.00 0.01 52 1008.0
20260902063145 89 234 0.0 0.0 0.00 0.00 0.01 53 1008.0
20260902062745 89 250 0.0 0.0 0.00 0.00 0.01 53 1008.0
20260902061748 89 106 0.0 0.0 0.00 0.00 0.01 52 1008.0
20260902061236 89 240 0.0 0.0 0.00 0.00 0.01 53 1008.2
20260902060251 88 242 0.0 0.0 0.00 0.00 0.01 54 1008.2
20260902060135 88 210 0.0 0.0 0.00 0.00 0.01 54 1008.2
20260902055246 88 180 0.0 0.0 0.00 0.00 0.01 55 1008.2
20260902054737 89 162 0.0 0.0 0.00 0.00 0.01 53 1008.2
20260902054245 89 175 0.0 0.0 0.00 0.00 0.01 53 1008.3
20260902053753 90 180 0.0 0.0 0.00 0.00 0.01 51 1008.3
20260902053248 90 200 0.0 0.0 0.00 0.00 0.01 51 1008.3
20260902052753 90 173 0.0 0.0 0.00 0.00 0.01 51 1008.5
20260902052240 89 103 0.0 0.0 0.00 0.00 0.01 52 1008.5
20260902051733 88 228 0.0 0.0 0.00 0.00 0.01 54 1008.5
20260902051244 89 165 0.0 0.0 0.00 0.00 0.01 53 1008.7
20260902050239 90 132 0.0 0.0 0.00 0.00 0.01 51 1008.7
20260902050143 90 130 0.0 0.0 0.00 0.00 0.01 51 1008.7
20260902045745 89 144 0.0 0.0 0.00 0.00 0.01 52 1009.0
20260902044239 89 216 0.0 0.0 0.00 0.00 0.01 53 1009.1
20260902043746 89 210 0.0 0.0 0.00 0.00 0.01 52 1009.1
20260902043132 89 166 0.0 0.0 0.00 0.00 0.01 54 1009.1
20260902042754 89 186 0.0 0.0 0.00 0.00 0.01 53 1009.0
20260902042242 89 187 0.0 0.0 0.00 0.00 0.01 55 1009.0
20260902041737 89 314 0.0 0.0 0.00 0.00 0.01 55 1009.0
20260902041245 89 179 0.0 0.0 0.00 0.00 0.01 53 1009.1
20260902040737 89 264 0.0 0.0 0.00 0.00 0.01 53 1009.1
20260902040249 89 178 0.0 0.0 0.00 0.00 0.01 52 1009.1
20260902035755 89 193 0.0 0.0 0.00 0.00 0.01 52 1009.3
20260902035244 90 211 0.0 0.0 0.00 0.00 0.01 52 1009.3
20260902034739 90 159 0.0 0.0 0.00 0.00 0.01 50 1009.3
20260902034247 90 186 0.0 0.0 0.00 0.00 0.01 50 1009.5
20260902033737 90 172 0.0 0.0 0.00 0.00 0.01 52 1009.5
20260902033142 90 170 0.0 0.0 0.00 0.00 0.01 50 1009.5
20260902032745 91 193 0.0 0.0 0.00 0.00 0.01 49 1009.5
20260902032252 91 209 0.0 0.0 0.00 0.00 0.01 49 1009.5
20260902031741 90 156 0.0 0.0 0.00 0.00 0.01 50 1009.5
20260902031255 89 259 0.0 0.0 0.00 0.00 0.01 52 1009.6
20260902030753 89 165 0.0 0.0 0.00 0.00 0.01 51 1009.6
20260902030252 89 220 0.0 0.0 0.00 0.00 0.01 51 1009.6
20260902030135 89 151 0.0 0.0 0.00 0.00 0.01 51 1009.6
20260902025740 89 97 0.0 0.0 0.00 0.00 0.01 52 1009.7
20260902025248 89 128 0.0 0.0 0.00 0.00 0.01 53 1009.7
20260902023739 87 252 0.0 0.0 0.00 0.00 0.01 55 1009.7
20260902023255 87 241 0.0 0.0 0.00 0.00 0.01 55 1009.7
20260902023143 87 237 0.0 0.0 0.00 0.00 0.01 55 1009.7
20260902022237 88 252 0.0 0.0 0.00 0.00 0.01 53 1010.0
20260902021750 88 262 0.0 0.0 0.00 0.00 0.01 53 1010.0
20260902021244 88 265 0.0 0.0 0.00 0.00 0.01 55 1010.1
20260902020244 87 70 0.0 0.0 0.00 0.00 0.01 57 1010.1
20260902020130 87 76 0.0 0.0 0.00 0.00 0.01 57 1010.1
20260902014742 85 50 0.0 0.0 0.00 0.00 0.01 61 1010.1
20260902013746 85 55 0.0 0.0 0.00 0.00 0.01 62 1010.5
20260902013245 84 100 0.0 0.0 0.00 0.00 0.01 64 1010.5
20260902013129 84 348 0.0 0.0 0.00 0.00 0.01 64 1010.5
20260902012752 84 1 0.0 0.0 0.00 0.00 0.01 68 1010.7
20260902012242 83 360 0.0 0.0 0.00 0.00 0.01 69 1010.7
20260902011248 82 360 0.0 0.0 0.00 0.00 0.01 69 1010.7
20260902010743 82 1 0.0 0.0 0.00 0.00 0.01 68 1010.7
20260902010128 83 360 0.0 0.0 0.00 0.00 0.01 70 1010.7
20260902005747 82 355 0.0 0.0 0.00 0.00 0.01 71 1010.7
20260902004739 81 355 0.0 0.0 0.00 0.00 0.01 74 1010.7
20260902004249 81 355 0.0 0.0 0.00 0.00 0.01 77 1010.8
20260902003739 80 49 0.0 0.0 0.00 0.00 0.01 78 1010.8
20260902003239 80 31 0.0 0.0 0.00 0.00 0.01 79 1010.8
20260902003143 80 32 0.0 0.0 0.00 0.00 0.01 79 1010.8
20260902002748 79 39 0.0 0.0 0.00 0.00 0.01 80 1010.6
20260902002238 79 38 0.0 0.0 0.00 0.00 0.01 83 1010.6
20260902001754 79 355 0.0 0.0 0.00 0.00 0.01 86 1010.6
20260902001244 78 354 0.0 0.0 0.00 0.00 0.01 87 1010.6
20260902000244 77 353 0.0 0.0 0.00 0.00 0.01 89 1010.6
20260902000127 77 353 0.0 0.0 0.00 0.00 0.01 89 1010.6
20260901235751 77 354 0.0 0.0 0.00 0.00 0.01 90 1010.7
20260901235241 77 353 0.0 0.0 0.00 0.00 0.01 90 1010.7
20260901234735 77 31 0.0 0.0 0.00 0.00 0.01 91 1010.7
20260901234245 76 343 0.0 0.0 0.00 0.00 0.01 91 1010.8
20260901233754 76 341 0.0 0.0 0.00 0.00 0.01 92 1010.8
20260901233254 75 340 0.0 0.0 0.00 0.00 0.01 91 1010.8
20260901233138 75 340 0.0 0.0 0.00 0.00 0.01 91 1010.8
20260901232254 75 340 0.0 0.0 0.00 0.00 0.01 92 1010.7
20260901230745 75 338 0.0 0.0 0.00 0.00 0.01 92 1010.6
20260901230243 75 338 0.0 0.0 0.00 0.00 0.01 92 1010.6
20260901225752 75 337 0.0 0.0 0.00 0.00 0.01 92 1010.5
20260901225244 75 337 0.0 0.0 0.00 0.00 0.01 92 1010.5
20260901224738 75 337 0.0 0.0 0.00 0.00 0.01 92 1010.5
20260901224251 75 337 0.0 0.0 0.00 0.00 0.01 92 1010.7
20260901223744 75 337 0.0 0.0 0.00 0.00 0.01 92 1010.7
20260901222254 75 337 0.0 0.0 0.00 0.00 0.01 92 1010.7
20260901221748 75 337 0.0 0.0 0.00 0.00 0.01 92 1010.7
20260901221239 74 337 0.0 0.0 0.00 0.00 0.01 92 1010.8
20260901220254 74 337 0.0 0.0 0.00 0.00 0.01 92 1010.8
20260901215739 74 337 0.0 0.0 0.00 0.00 0.01 92 1011.0
20260901215250 74 337 0.0 0.0 0.00 0.00 0.01 92 1011.0
20260901214743 74 337 0.0 0.0 0.00 0.00 0.01 92 1011.0
20260901213753 74 337 0.0 0.0 0.00 0.00 0.01 92 1011.0
20260901213252 74 337 0.0 0.0 0.00 0.00 0.01 92 1011.0
20260901213136 74 336 0.0 0.0 0.00 0.00 0.01 92 1011.0
20260901212739 74 336 0.0 0.0 0.00 0.00 0.01 92 1011.0
20260901212250 74 337 0.0 0.0 0.00 0.00 0.01 92 1011.0
20260901211743 74 337 0.0 0.0 0.00 0.00 0.01 92 1011.0
20260901211239 74 337 0.0 0.0 0.00 0.00 0.01 92 1011.0
20260901210732 74 337 0.0 0.0 0.00 0.00 0.01 92 1011.0
20260901210253 74 337 0.0 0.0 0.00 0.00 0.01 92 1011.0
20260901205742 74 337 0.0 0.0 0.00 0.00 0.01 92 1011.0
20260901205252 74 336 0.0 0.0 0.00 0.00 0.01 92 1011.0
20260901204747 74 336 0.0 0.0 0.00 0.00 0.01 92 1011.0
20260901203750 74 337 0.0 0.0 0.00 0.00 0.01 92 1011.0
20260901203138 74 337 0.0 0.0 0.00 0.00 0.01 92 1011.0
20260901202248 74 337 0.0 0.0 0.00 0.00 0.01 92 1011.1
20260901201742 74 337 0.0 0.0 0.00 0.00 0.01 92 1011.1
20260901201252 74 337 0.0 0.0 0.00 0.00 0.01 92 1011.1
20260901200747 74 337 0.0 0.0 0.00 0.00 0.01 92 1011.1
20260901200246 74 337 0.0 0.0 0.00 0.00 0.01 92 1011.1
20260901195735 74 337 0.0 0.0 0.00 0.00 0.01 92 1011.0
20260901195245 74 337 0.0 0.0 0.00 0.00 0.01 92 1011.0
20260901194740 74 337 0.0 0.0 0.00 0.00 0.01 92 1011.0
20260901194250 74 337 0.0 0.0 0.00 0.00 0.01 92 1011.1
20260901193740 74 337 0.0 0.0 0.00 0.00 0.01 92 1011.1
20260901193254 74 337 0.0 0.0 0.00 0.00 0.01 92 1011.1
20260901193138 74 337 0.0 0.0 0.00 0.00 0.01 92 1011.1
20260901192740 74 337 0.0 0.0 0.00 0.00 0.01 91 1011.1
20260901192251 74 337 0.0 0.0 0.00 0.00 0.01 91 1011.1
20260901191744 74 337 0.0 0.0 0.00 0.00 0.01 91 1011.1
20260901191236 74 337 0.0 0.0 0.00 0.00 0.01 91 1011.1
20260901190749 74 337 0.0 0.0 0.00 0.00 0.01 91 1011.1
20260901190249 74 337 0.0 0.0 0.00 0.00 0.01 91 1011.1
20260901185250 74 337 0.0 0.0 0.00 0.00 0.01 91 1011.1
20260901184744 74 337 0.0 0.0 0.00 0.00 0.01 91 1011.1
20260901184236 74 337 0.0 0.0 0.00 0.00 0.01 91 1011.1
20260901183744 74 337 0.0 0.0 0.00 0.00 0.00 91 1011.1
20260901183245 74 337 0.0 0.0 0.00 0.00 0.00 91 1011.1
20260901183129 74 337 0.0 0.0 0.00 0.00 0.00 91 1011.1
20260901182752 74 337 0.0 0.0 0.00 0.00 0.00 91 1011.2
20260901182241 74 337 0.0 0.0 0.00 0.00 0.00 91 1011.2
20260901181249 74 337 0.0 0.0 0.00 0.00 0.00 91 1011.3
20260901180248 74 337 0.0 0.0 0.00 0.00 0.00 91 1011.3
20260901180136 74 337 0.0 0.0 0.00 0.00 0.00 91 1011.3
20260901175734 74 337 0.0 0.0 0.00 0.00 0.00 91 1011.5
20260901174747 74 337 0.0 0.0 0.00 0.00 0.00 91 1011.5
20260901174236 74 337 0.0 0.0 0.00 0.00 0.00 91 1011.6
20260901173252 74 337 0.0 0.0 0.00 0.00 0.00 91 1011.6
20260901173136 74 337 0.0 0.0 0.00 0.00 0.00 91 1011.6
20260901172235 74 337 0.0 0.0 0.00 0.00 0.00 91 1011.6
20260901171747 74 337 0.0 0.0 0.00 0.00 0.00 91 1011.6
20260901171238 74 337 0.0 0.0 0.00 0.00 0.00 91 1011.5
20260901170753 74 337 0.0 0.0 0.00 0.00 0.00 91 1011.5
20260901170252 74 338 0.0 0.0 0.00 0.00 0.00 91 1011.5
20260901170136 74 337 0.0 0.0 0.00 0.00 0.00 91 1011.5
20260901165735 74 337 0.0 0.0 0.00 0.00 0.00 91 1011.6
20260901165249 74 337 0.0 0.0 0.00 0.00 0.00 91 1011.6
20260901164242 74 337 0.0 0.0 0.00 0.00 0.00 91 1011.6
20260901163753 74 337 0.0 0.0 0.00 0.00 0.00 91 1011.6
20260901163252 74 337 0.0 0.0 0.00 0.00 0.00 91 1011.6
20260901163136 74 337 0.0 0.0 0.00 0.00 0.00 91 1011.6
20260901162738 75 337 0.0 0.0 0.00 0.00 0.00 91 1011.7
20260901162243 75 337 0.0 0.0 0.00 0.00 0.00 91 1011.7
20260901161741 75 337 0.0 0.0 0.00 0.00 0.00 90 1011.7
20260901161252 75 337 0.0 0.0 0.00 0.00 0.00 90 1011.7
20260901160746 75 337 0.0 0.0 0.00 0.00 0.00 90 1011.7
20260901160245 75 337 0.0 0.0 0.00 0.00 0.00 90 1011.7
20260901160130 75 337 0.0 0.0 0.00 0.00 0.00 90 1011.7
20260901155753 75 337 0.0 0.0 0.00 0.00 0.00 90 1011.8
20260901155243 75 337 0.0 0.0 0.00 0.00 0.00 90 1011.8
20260901154253 75 336 0.0 0.0 0.00 0.00 0.00 90 1012.1
20260901153742 75 337 0.0 0.0 0.00 0.00 0.00 90 1012.1
20260901153126 75 337 0.0 0.0 0.00 0.00 0.00 90 1012.1
20260901152746 75 337 0.0 0.0 0.00 0.00 0.00 90 1012.2
20260901152236 75 337 0.0 0.0 0.00 0.00 0.00 90 1012.2
20260901151751 75 336 0.0 0.0 0.00 0.00 0.00 90 1012.2
20260901151243 75 337 0.0 0.0 0.00 0.00 0.00 89 1012.2
20260901150743 75 337 0.0 0.0 0.00 0.00 0.00 89 1012.2
20260901150131 75 336 0.0 0.0 0.00 0.00 0.00 89 1012.2
20260901145753 75 337 0.0 0.0 0.00 0.00 0.05 89 1012.6
20260901145241 75 336 0.0 0.0 0.00 0.00 0.05 89 1012.6
20260901144752 75 336 0.0 0.0 0.00 0.00 0.05 89 1012.6
20260901144243 75 337 0.0 0.0 0.00 0.00 0.05 89 1012.5
20260901143755 75 336 0.0 0.0 0.00 0.00 0.05 89 1012.5
20260901143244 75 336 0.0 0.0 0.00 0.00 0.05 89 1012.5
20260901143129 75 337 0.0 0.0 0.00 0.00 0.05 89 1012.5
20260901142751 76 337 0.0 0.0 0.00 0.00 0.05 89 1012.6
20260901141741 76 337 0.0 0.0 0.00 0.00 0.05 89 1012.6
20260901141251 76 336 0.0 0.0 0.00 0.00 0.05 88 1012.6
20260901140247 76 337 0.0 0.0 0.00 0.00 0.05 88 1012.6
20260901140135 76 336 0.0 0.0 0.00 0.00 0.05 88 1012.6
20260901135753 76 336 0.0 0.0 0.00 0.00 0.05 88 1012.6
20260901135242 76 337 0.0 0.0 0.00 0.00 0.05 87 1012.6
20260901134737 76 337 0.0 0.0 0.00 0.00 0.04 87 1012.6
20260901134248 76 337 0.0 0.0 0.00 0.00 0.04 87 1012.6
20260901133738 76 338 0.0 0.0 0.00 0.00 0.04 87 1012.6
20260901133236 75 337 0.0 0.0 0.00 0.00 0.03 86 1012.6
20260901133140 76 337 0.0 0.0 0.00 0.00 0.03 86 1012.6
20260901132240 76 337 0.0 0.0 0.00 0.00 0.03 86 1012.6
20260901131245 76 337 0.0 0.0 0.00 0.00 0.02 85 1012.6
20260901130737 76 337 0.0 0.0 0.00 0.00 0.02 85 1012.6
20260901130143 76 336 0.0 0.0 0.00 0.00 0.02 85 1012.6
20260901125741 76 337 0.0 0.0 0.00 0.00 0.02 84 1012.7
20260901125252 76 337 0.0 0.0 0.00 0.00 0.02 84 1012.7
20260901123736 76 338 0.0 0.0 0.00 0.00 0.02 83 1012.6
20260901123254 77 337 0.0 0.0 0.00 0.00 0.01 83 1012.7
20260901123138 77 329 0.0 0.0 0.00 0.00 0.01 83 1012.7
20260901122243 77 327 0.0 0.0 0.00 0.00 0.01 82 1012.7
20260901121249 77 327 0.0 0.0 0.00 0.00 0.01 81 1012.8
20260901120250 77 324 0.0 0.0 0.00 0.00 0.01 81 1012.8
20260901120136 77 323 0.0 0.0 0.00 0.00 0.01 81 1012.8
20260901115736 77 323 0.0 0.0 0.00 0.00 0.00 80 1012.7
20260901115246 78 324 0.0 0.0 0.00 0.00 0.00 80 1012.7
20260901114754 78 324 0.0 0.0 0.00 0.00 0.00 80 1012.7
20260901114243 78 323 0.0 0.0 0.00 0.00 0.00 80 1012.7
20260901113142 78 323 0.0 0.0 0.00 0.00 0.00 79 1012.7